Orbital Elements at Epoch 2459000.5 (2020-May-31.0) TDB
Reference: JPL 7 (heliocentric ecliptic J2000)
Element | Value | Uncertainty (1-sigma) | Units |
e | .236191465186343 | 7.8713e-08 | |
a | 3.058777203363176 | 3.0379e-08 | au |
q | 2.336320134022242 | 2.4447e-07 | au |
i | 17.11366111398374 | 6.302e-06 | deg |
node | 44.67438042178341 | 2.2227e-05 | deg |
peri | 325.9116367583296 | 3.1119e-05 | deg |
M | 168.3237276322595 | 1.9029e-05 | deg |
tp | 2458086.885394953689 (2017-Nov-29.38539495) | 9.5232e-05 | TDB |
period | 1953.980359413319 5.35 | 2.9109e-05 7.97e-08 | d yr |
n | .1842393134944763 | 2.7447e-09 | deg/d |
Q | 3.781234272704109 | 3.7554e-08 | au |
|
| | Orbit Determination Parameters
Additional Information
|